Location: Bernay
(48.6766°N, 2.9386°E)
Time: 21:30:46
(UTC+00:00)

Cosmos 2181 Rocket - Pass Details

Date: 12 January 2026
Orbit: 952 x 1013 km, 82.9° (Epoch: 17 February)

Event Time Altitude Azimuth Distance (km) Brightness Sun altitude
Rises 17:22:34 0° 160° (SSE) 3,617 7.0 -10.7°
Reaches altitude 10° 17:25:13 10° 152° (SSE) 2,679 6.2 -11.1°
Maximum altitude 17:30:44 37° 87° (E) 1,461 4.5 -11.9°
Drops below altitude 10° 17:36:20 10° 23° (NNE) 2,723 6.0 -12.8°
Sets 17:39:02 0° 16° (NNE) 3,684 6.7 -13.2°
